Precipitable_Water
0.21 0.20 0.18 0.17 0.25 0.30 0.31 0.30 0.26 0.29 0.36 0.38 0.36 0.39 0.43 0.45 0.51 0.52 0.50 0.50 0.53 0.58 0.61 0.64 0.64 0.67 0.70 0.75 0.74 0.81 0.90 1.02 1.11 1.15 1.18 1.25 1.24 1.31 1.38 1.41 1.38 1.35 1.33 1.34
0.22 0.14 0.16 0.23 0.25 0.27 0.27 0.24 0.24 0.31 0.37 0.38 0.33 0.37 0.42 0.42 0.44 0.48 0.50 0.49 0.53 0.58 0.61 0.63 0.63 0.65 0.70 0.75 0.82 0.91 1.00 1.12 1.20 1.24 1.30 1.33 1.33 1.36 1.30 1.36 1.32 1.31 1.30 1.29
0.19 0.18 0.19 0.20 0.23 0.23 0.22 0.20 0.20 0.23 0.33 0.33 0.32 0.32 0.33 0.36 0.39 0.44 0.49 0.51 0.53 0.55 0.55 0.57 0.60 0.60 0.72 0.79 0.87 0.94 1.13 1.20 1.26 1.35 1.38 1.39 1.38 1.34 1.27 1.23 1.20 1.21 1.25 1.26
0.17 0.21 0.23 0.20 0.20 0.23 0.17 0.25 0.24 0.25 0.25 0.20 0.31 0.22 0.26 0.29 0.31 0.35 0.39 0.44 0.50 0.52 0.52 0.53 0.55 0.62 0.73 0.85 0.94 1.02 1.21 1.27 1.36 1.36 1.31 1.26 1.16 1.07 1.11 1.12 1.18 1.21 1.21 1.13
0.13 0.16 0.20 0.22 0.19 0.26 0.19 0.26 0.25 0.26 0.23 0.23 0.24 0.22 0.17 0.28 0.28 0.33 0.37 0.46 0.49 0.49 0.51 0.52 0.57 0.68 0.83 0.95 0.98 1.09 1.23 1.29 1.30 1.30 1.27 1.19 1.09 1.10 1.11 1.13 1.11 1.13 1.10 1.16
0.20 0.22 0.19 0.17 0.20 0.25 0.27 0.27 0.25 0.25 0.24 0.20 0.18 0.21 0.13 0.20 0.24 0.30 0.39 0.45 0.46 0.49 0.53 0.60 0.73 0.82 0.89 0.98 1.09 1.21 1.22 1.18 1.22 1.23 1.16 1.07 1.02 1.00 1.03 1.05 0.99 1.01 1.05 1.17
0.27 0.27 0.23 0.20 0.18 0.20 0.23 0.23 0.19 0.17 0.17 0.11 0.19 0.19 0.18 0.23 0.30 0.34 0.38 0.44 0.50 0.56 0.61 0.69 0.74 0.84 0.92 0.98 1.12 1.16 1.11 1.07 1.11 1.08 1.05 1.07 1.03 1.05 0.98 0.97 0.93 0.91 1.07 1.15
0.18 0.19 0.27 0.29 0.19 0.19 0.18 0.23 0.19 0.13 0.13 0.13 0.20 0.17 0.17 0.27 0.36 0.40 0.41 0.43 0.60 0.64 0.69 0.78 0.85 0.90 0.97 1.06 1.09 1.02 0.97 0.95 1.02 1.02 1.00 1.05 1.03 0.99 0.98 0.94 0.90 1.08 1.13 1.08
0.25 0.23 0.36 0.35 0.33 0.22 0.18 0.19 0.23 0.20 0.23 0.17 0.19 0.21 0.27 0.33 0.35 0.39 0.40 0.47 0.62 0.66 0.76 0.82 0.92 0.96 1.04 1.02 0.94 0.92 0.93 0.95 0.97 0.95 1.00 0.98 0.90 0.89 0.88 0.98 1.11 1.10 1.11 1.05
0.31 0.22 0.26 0.32 0.33 0.29 0.23 0.22 0.22 0.21 0.17 0.15 0.16 0.18 0.19 0.30 0.38 0.40 0.42 0.50 0.64 0.72 0.77 0.80 0.88 0.93 0.95 0.93 0.93 0.97 0.97 0.92 0.92 0.93 0.91 0.88 0.90 0.97 1.03 1.12 1.14 1.13 1.04 1.15
0.33 0.26 0.19 0.28 0.27 0.23 0.21 0.21 0.23 0.25 0.22 0.17 0.15 0.17 0.36 0.34 0.44 0.40 0.44 0.57 0.62 0.68 0.73 0.77 0.82 0.88 0.91 0.94 0.97 0.96 0.90 0.90 0.87 0.87 0.86 0.84 0.89 1.02 1.06 1.14 1.18 1.08 1.07 1.12
0.34 0.28 0.18 0.23 0.29 0.31 0.31 0.30 0.25 0.22 0.19 0.21 0.23 0.23 0.44 0.53 0.46 0.46 0.48 0.57 0.65 0.71 0.75 0.78 0.81 0.86 0.90 0.92 0.94 0.88 0.89 0.85 0.81 0.84 0.85 0.94 1.02 1.09 1.27 1.26 1.13 1.02 1.03 1.07
0.35 0.27 0.21 0.20 0.21 0.29 0.31 0.31 0.27 0.28 0.29 0.21 0.20 0.25 0.42 0.46 0.53 0.57 0.56 0.63 0.73 0.80 0.83 0.81 0.83 0.84 0.88 0.91 0.90 0.86 0.82 0.78 0.78 0.91 0.91 1.00 1.07 1.24 1.28 1.23 1.05 0.93 1.03 1.08
0.42 0.32 0.25 0.21 0.29 0.39 0.34 0.37 0.37 0.33 0.23 0.23 0.23 0.29 0.33 0.41 0.52 0.63 0.66 0.71 0.78 0.88 0.82 0.80 0.80 0.83 0.88 0.89 0.86 0.79 0.75 0.74 0.85 0.90 1.01 1.00 1.12 1.24 1.23 1.12 1.03 1.01 1.08 1.09
0.43 0.31 0.34 0.34 0.37 0.41 0.37 0.37 0.37 0.32 0.31 0.21 0.26 0.29 0.36 0.53 0.57 0.65 0.73 0.78 0.82 0.79 0.76 0.77 0.78 0.81 0.84 0.84 0.79 0.72 0.73 0.75 0.88 1.00 1.02 1.07 1.14 1.13 1.10 1.04 0.97 1.06 1.13 1.09
0.48 0.34 0.37 0.30 0.35 0.39 0.32 0.37 0.37 0.34 0.31 0.28 0.28 0.34 0.55 0.64 0.71 0.74 0.76 0.75 0.72 0.72 0.76 0.78 0.79 0.81 0.81 0.77 0.70 0.67 0.71 0.77 0.89 1.03 1.02 1.08 1.09 1.04 1.02 1.01 0.96 0.99 1.09 1.09
0.33 0.34 0.34 0.28 0.35 0.34 0.27 0.29 0.33 0.32 0.33 0.31 0.27 0.36 0.66 0.71 0.79 0.76 0.76 0.76 0.75 0.76 0.77 0.77 0.79 0.81 0.82 0.71 0.67 0.61 0.72 0.82 0.88 0.99 1.07 1.13 1.06 1.05 1.04 1.07 1.02 1.01 1.08 1.09
0.27 0.32 0.35 0.29 0.36 0.21 0.30 0.51 0.35 0.34 0.39 0.47 0.43 0.50 0.64 0.67 0.76 0.87 0.86 0.80 0.81 0.80 0.79 0.78 0.82 0.80 0.80 0.73 0.63 0.66 0.75 0.75 0.88 1.00 1.08 1.09 1.07 1.06 1.08 1.11 1.11 1.13 1.11 1.10
0.37 0.35 0.32 0.29 0.31 0.34 0.44 0.58 0.54 0.53 0.55 0.70 0.61 0.62 0.90 0.86 0.74 0.78 0.88 0.93 0.91 0.87 0.83 0.81 0.86 0.81 0.75 0.70 0.63 0.65 0.69 0.70 0.86 1.01 1.03 1.05 1.08 1.08 1.15 1.14 1.19 1.28 1.31 1.29
0.42 0.40 0.36 0.36 0.30 0.29 0.50 0.64 0.73 0.73 0.51 0.83 0.74 0.64 0.67 0.79 0.56 0.64 0.80 0.88 0.95 0.93 0.91 0.87 0.87 0.81 0.69 0.68 0.61 0.61 0.63 0.70 0.82 0.98 1.03 1.05 1.05 1.05 1.06 1.13 1.22 1.31 1.35 1.37
0.40 0.40 0.34 0.35 0.32 0.41 0.58 0.67 0.74 0.47 0.58 0.87 0.78 0.76 0.76 0.71 0.69 0.70 0.76 0.82 0.94 0.98 0.91 0.93 0.90 0.79 0.69 0.65 0.58 0.54 0.60 0.67 0.83 0.96 0.99 1.01 0.99 0.96 1.02 1.11 1.19 1.32 1.36 1.35
0.37 0.36 0.37 0.37 0.32 0.32 0.67 0.68 0.57 0.73 0.86 0.84 0.83 0.82 0.78 0.80 0.77 0.73 0.68 0.70 0.87 0.97 0.92 0.93 0.90 0.84 0.79 0.62 0.54 0.52 0.55 0.70 0.83 0.90 0.91 0.96 0.97 0.98 1.00 0.99 1.18 1.41 1.36 1.28
0.36 0.44 0.41 0.44 0.43 0.61 0.71 0.71 0.81 0.82 0.81 0.80 0.83 0.86 0.83 0.74 0.71 0.72 0.74 0.73 0.86 0.96 0.94 0.98 0.93 0.86 0.79 0.71 0.54 0.49 0.57 0.67 0.79 0.85 0.88 0.93 0.95 0.92 0.90 0.83 1.14 1.21 1.20 1.21
0.49 0.57 0.48 0.49 0.56 0.60 0.69 0.76 0.81 0.81 0.77 0.79 0.82 0.82 0.82 0.75 0.75 0.70 0.75 0.78 0.88 0.98 1.01 1.03 0.95 0.87 0.82 0.78 0.59 0.51 0.61 0.66 0.75 0.81 0.83 0.89 0.89 0.86 0.87 0.76 0.94 1.03 1.08 1.18
0.48 0.53 0.50 0.51 0.58 0.63 0.68 0.76 0.78 0.78 0.79 0.78 0.78 0.81 0.79 0.78 0.75 0.69 0.71 0.86 0.88 0.98 1.08 1.03 0.99 0.91 0.88 0.86 0.68 0.52 0.63 0.61 0.70 0.79 0.82 0.84 0.86 0.81 0.85 0.70 0.79 0.87 1.01 1.11
0.49 0.48 0.46 0.44 0.59 0.59 0.63 0.71 0.77 0.74 0.74 0.75 0.74 0.74 0.77 0.77 0.74 0.69 0.72 0.90 0.94 0.97 1.05 1.04 1.05 0.99 0.96 0.92 0.73 0.51 0.62 0.59 0.67 0.71 0.75 0.79 0.83 0.82 0.85 0.77 0.72 0.83 0.83 0.92
Wind_Speed
36 36 42 48 42 37 34 34 37 38 36 34 38 39 38 34 31 33 34 33 32 33 34 31 28 28 30 30 29 28 27 25 23 22 21 21 21 20 21 21 21 21 22 22
34 44 45 39 38 40 38 39 38 32 29 29 32 33 35 35 32 32 33 30 29 28 27 26 28 31 33 32 28 25 24 22 21 21 21 20 20 20 20 19 20 20 20 22
36 37 37 41 39 38 41 41 36 34 26 30 29 33 34 32 31 29 30 29 30 30 30 31 33 31 25 24 27 23 20 20 19 19 18 18 18 19 18 19 18 18 19 21
36 36 39 37 41 39 41 34 35 32 27 31 27 32 35 29 30 31 30 30 30 27 28 28 26 23 22 19 17 16 17 17 16 16 16 17 17 16 16 16 17 17 18 19
38 31 30 36 39 38 40 32 33 28 30 29 30 25 28 21 22 23 24 25 24 24 25 26 24 19 17 16 14 14 13 13 14 15 15 14 13 13 14 13 14 14 16 17
34 34 34 35 33 37 33 32 33 31 28 27 30 27 31 24 22 22 21 21 22 24 21 18 15 14 13 14 13 12 12 12 12 13 12 11 11 12 11 11 12 13 14 15
28 30 34 35 33 33 35 31 24 27 28 30 26 25 27 18 21 24 21 19 19 14 12 10 10 11 12 12 11 11 11 10 10 10 10 10 9 8 10 10 12 12 13 12
26 26 28 27 35 30 32 35 29 28 28 30 27 24 20 22 20 20 19 17 11 9 8 7 10 10 11 11 10 9 9 8 8 8 8 8 9 10 10 11 11 10 11 8
18 25 23 25 26 33 34 35 38 33 24 24 20 24 26 25 23 17 16 13 9 6 5 7 9 10 11 10 9 8 8 7 7 7 7 7 7 8 8 8 8 9 6 4
18 23 24 26 26 32 38 32 28 32 29 26 22 24 20 17 19 18 13 11 9 8 7 8 10 10 10 10 8 7 7 7 7 6 6 6 6 7 7 7 7 5 3 3
15 21 23 25 26 26 28 35 33 30 28 26 20 20 16 23 20 15 15 12 12 10 9 10 10 11 10 8 7 6 7 7 6 5 5 5 6 5 5 4 4 3 3 4
12 17 20 26 31 30 33 33 36 29 35 27 21 18 9 7 10 12 14 14 13 12 10 10 12 12 9 8 6 6 6 6 5 5 5 5 4 4 3 3 2 4 3 4
9 11 13 17 24 26 29 30 35 29 25 35 25 23 13 12 10 10 15 15 13 13 10 12 13 11 9 7 6 6 6 5 5 4 4 3 3 3 3 3 3 4 4 4
7 11 15 18 16 19 24 25 24 25 30 27 29 27 18 18 15 15 15 16 15 13 12 13 12 10 9 7 7 7 6 5 5 5 4 3 3 3 3 3 4 5 4 4
6 8 13 17 21 22 27 30 27 26 27 32 29 21 20 17 15 18 18 16 16 15 15 13 11 10 8 7 7 7 6 4 5 4 3 3 3 2 3 3 5 5 5 5
7 7 9 13 19 22 28 31 30 31 32 29 31 26 17 15 15 17 19 18 17 16 16 13 11 9 9 8 8 7 6 4 5 6 3 2 2 2 3 4 5 6 5 6
12 8 7 8 12 14 21 31 32 31 31 29 31 29 19 15 13 16 18 18 19 18 16 13 11 9 9 9 8 7 6 6 6 5 3 4 3 3 4 5 6 6 6 6
12 9 7 8 9 12 16 14 32 29 24 23 24 25 20 23 19 14 14 17 17 20 16 13 10 9 10 8 8 7 8 6 6 4 5 5 5 5 6 6 6 6 6 6
9 7 8 8 8 10 12 13 16 18 14 9 23 25 15 24 25 16 13 15 14 14 15 13 11 10 10 9 8 8 8 6 7 6 7 6 6 6 6 5 5 4 5 6
6 10 8 5 8 8 14 9 10 15 18 13 19 24 22 15 18 16 14 15 14 12 12 14 12 11 10 9 9 9 8 8 8 9 7 7 6 6 6 5 5 3 4 6
3 5 9 7 7 7 6 9 13 22 16 14 19 21 20 17 19 17 14 13 15 12 12 16 13 12 10 10 10 9 9 9 8 10 8 8 7 6 6 5 4 5 6 6
1 2 7 11 7 5 4 13 19 15 19 18 17 19 20 16 16 14 12 12 14 13 13 16 13 12 11 11 10 10 10 10 9 10 9 8 7 7 6 6 7 8 8 8
2 3 5 7 8 7 4 14 15 12 13 16 18 17 17 17 14 12 11 11 15 15 13 17 14 12 12 11 10 10 11 11 10 10 10 9 8 8 8 8 10 10 9 8
2 4 6 9 7 7 9 8 9 10 15 15 13 17 14 15 14 12 10 10 12 15 15 16 16 13 11 12 11 12 12 12 11 11 11 9 8 9 8 8 9 9 9 9
2 2 2 6 4 3 4 5 6 3 7 9 10 14 15 13 12 11 11 11 11 12 14 14 19 15 12 12 12 14 13 13 12 12 11 10 9 10 9 8 8 8 8 9
3 2 3 5 3 3 1 4 5 5 7 8 8 11 13 13 12 11 12 12 11 12 11 13 20 18 14 12 12 14 15 14 13 13 11 10 10 10 9 8 8 8 8 9
Wind_Direction
235 233 232 234 236 243 249 245 250 252 251 255 257 261 263 264 264 267 270 272 273 269 274 272 273 273 273 272 272 270 268 260 255 254 251 255 260 264 267 273 274 278 281 285
236 235 237 239 239 240 243 250 252 256 252 251 254 258 261 261 264 264 266 270 270 275 273 269 271 276 273 269 267 268 263 252 252 251 254 254 259 265 271 271 273 277 281 288
238 240 237 236 236 238 238 241 248 252 258 258 263 264 265 264 265 266 267 270 269 268 271 275 276 275 271 267 260 259 252 249 250 250 249 254 260 267 269 271 272 275 282 290
243 240 238 237 233 233 240 239 244 250 250 252 252 265 260 262 264 265 267 269 270 271 273 273 273 270 263 260 251 241 243 243 244 243 247 255 264 264 267 270 272 277 285 292
237 241 237 237 236 232 240 236 243 245 245 253 251 257 261 250 258 266 268 270 271 271 275 272 268 263 253 245 237 233 235 237 239 243 252 256 259 265 265 269 275 281 290 295
240 239 239 239 240 235 238 236 238 242 245 250 244 243 259 252 261 265 269 270 271 280 276 279 252 242 236 227 225 225 231 236 240 245 248 251 259 262 266 270 278 287 293 298
241 240 237 237 239 236 230 228 231 231 231 238 235 245 251 261 257 258 263 266 278 272 273 261 225 225 216 210 213 224 230 235 237 240 242 251 255 262 265 272 282 288 294 298
240 243 235 235 229 230 227 222 221 222 226 241 243 245 251 254 262 258 259 261 259 263 262 232 208 203 198 199 212 219 217 226 236 233 236 246 258 266 271 280 285 287 293 287
245 240 241 241 238 226 227 226 223 232 239 238 237 243 255 257 259 252 251 235 231 227 212 200 196 197 193 203 201 203 215 227 226 226 240 251 259 270 275 281 286 294 287 255
245 249 239 238 241 232 221 222 220 221 227 237 231 244 250 263 244 243 230 209 210 206 205 198 190 187 187 186 192 206 218 221 218 233 238 253 256 269 272 278 278 284 244 241
265 246 239 240 224 225 220 222 222 224 220 226 232 241 249 246 231 237 214 200 196 191 186 184 178 176 178 184 197 213 212 209 219 224 242 252 257 262 269 273 265 248 222 203
260 252 243 241 234 231 230 232 218 219 218 224 224 227 237 168 214 205 199 187 184 180 183 184 178 179 182 188 204 205 201 207 213 229 246 242 244 256 252 258 248 209 211 190
270 255 252 240 220 219 219 221 215 216 219 220 222 217 218 239 216 203 190 187 182 182 184 177 177 185 188 199 204 199 203 203 217 221 214 230 220 234 246 229 218 200 187 184
270 259 238 229 222 222 221 223 218 219 215 212 220 223 237 245 211 195 185 182 184 187 180 177 181 186 193 201 197 196 196 207 210 208 212 211 218 242 240 220 193 178 176 178
265 276 242 238 235 228 222 220 221 222 221 211 217 216 224 207 199 193 188 183 182 180 175 178 181 186 195 191 188 188 191 200 192 184 185 201 221 236 216 203 185 183 176 170
256 270 262 252 232 216 223 220 220 220 221 221 213 217 225 203 192 190 188 183 183 179 176 179 179 182 182 180 180 181 181 178 166 168 180 190 196 183 183 175 174 172 168 161
259 243 267 238 187 197 218 213 214 212 215 213 211 208 192 187 182 191 191 186 183 179 178 180 179 180 179 177 177 178 177 162 160 164 163 149 142 133 142 153 157 162 161 164
250 243 246 230 209 190 194 210 201 205 208 228 215 187 195 192 178 168 171 173 180 176 180 179 178 177 175 176 175 170 168 165 163 154 149 135 136 128 130 137 144 154 162 163
230 216 218 198 194 221 194 168 179 182 181 162 157 168 178 176 167 172 176 176 178 182 185 180 176 173 172 173 172 168 168 166 163 150 143 132 126 132 133 131 143 150 168 174
238 192 196 196 181 189 165 183 183 186 171 174 171 181 189 164 179 190 191 189 183 183 188 180 174 171 171 172 169 167 168 165 165 159 150 141 127 126 130 127 125 121 147 175
163 180 194 191 171 141 196 204 199 167 168 178 173 175 175 172 180 185 184 188 189 188 189 178 174 173 173 171 169 170 169 168 166 161 152 145 133 119 111 119 122 122 117 128
44 141 165 166 159 141 25 174 162 166 179 184 161 169 175 175 176 178 185 189 191 191 183 180 176 176 177 172 169 170 170 170 164 161 153 147 141 126 112 99 118 122 114 111
98 71 142 156 139 98 116 140 156 179 183 167 167 169 174 176 179 185 188 193 194 192 188 185 179 177 179 178 175 172 173 170 165 161 158 151 144 138 121 109 113 113 110 107
59 73 127 149 127 110 122 162 149 110 130 160 163 177 174 182 187 185 186 189 186 196 193 190 183 179 179 184 183 179 176 174 170 164 162 159 151 147 139 128 125 116 108 107
78 130 119 158 126 125 84 155 168 154 153 161 172 180 185 188 188 192 192 192 193 198 196 193 191 186 183 185 187 184 182 179 173 171 166 164 159 154 148 134 135 128 125 118
18 155 158 183 244 221 94 144 205 165 148 174 184 182 194 198 206 198 195 196 196 197 195 195 194 191 188 184 187 188 187 184 179 175 175 173 167 165 160 148 136 132 121 127